Погода в Тамдыбулаке

Погода в Тамдыбулаке : погода сейчас, прогноз погоды и архив. Всё, что Вы хотите узнать о погоде в Тамдыбулаке!

Хотите узнать прогноз погоды в Тамдыбулаке? Тогда Вам сюда: Погода в Тамдыбулаке

Поиск расширенной информации на нашем сайте:

Другие новости

Новости СМИ2

Главная страница сайта

Новости сайта

03.07.2017

Напоминаем, что на нашем специализированном сайте Метеоцентр.Азия вы можете получить высокодетализированные автоматические прогнозы погоды по пунктам России, СНГ и мира в авиационном формате (включающие направление и скорость ветра, видимость, явления погоды, количество и форму облачности, нижнюю и верхнюю границу облачности).


Погода в Тамдыбулаке - сегодня

Время (UTC), дата Ветер
(°,м/с) 
Видим.   Явления Облачность Т
(°С)
Тd
(°С)
f(%) Тe
(°С)
Pmin
(гПа)
dP
(гПа)
Po
(мм)
O2
(г/м3)
Тmin Tmax R s Состояние
почвы
09 15.06.18 360 (С) 20000 м    ясно 
+30 -6.4 9 +30  1013.9  0.4  740  269           
12 15.06.18 310 (СЗ) 20000 м    ясно 
+32.4 -6.7 8 +32  1013.3  -0.4  740  267           
15 15.06.18 040 (СВ) 20000 м    ясно 
+31 -6 9 +31  1013.6  0.2  740  268    +32.9       
18 15.06.18 100 (В) н/о    ясно 
+25.4 -3.3 15 +25  1014.3  0.1  740  273    +32.9       
21 15.06.18 090 (В) н/о    ясно 
+22.3 -3 18 +22  1014.9  0.4  741  276           
00 16.06.18 090 (В) н/о    ясно 
+19.6 -7.8 15 +21  1014.6  -0.6  740  279           
06 16.06.18 090 (В) 20000 м    ясно 
+31.6 -3.3 10 +32  1011.5  -2  739  267  +19.5         
09 16.06.18 070 (В) 20000 м    ясно 
+31.4 -5 9 +31  1010.6  -0.7  738  267           
12 16.06.18 340 (С) 20000 м    ясно 
+34.2 -5.7 7 +34  1009.4  -1  737  265           
15 16.06.18 070 (В) 20000 м    ясно 
+32.8 -2.7 10 +33  1008.5  -1.2  737  265    +35.5       
18 16.06.18 090 (В) 20000 м    ясно 
+27 -3.6 13 +27  1007.8  -1  736  270    +35.5       
21 16.06.18 090 (В) н/о    ясно 
+24.6 -3.6 15 +25  1006.9  -1.2  735  272           
00 17.06.18 120 (ЮВ) 20000 м    ясно 
+22.9 -3.6 17 +23  1006.1  -0.9  734  273           
03 17.06.18 060 (СВ) 20000 м    ясно 
+26.3 -2.5 15 +26  1005.7  734  270           
06 17.06.18 350 (С) 20000 м    ясно 
+33.3 -2.2 10 +33  1005  -0.2  734  264  +22.7         
09 17.06.18 270 (З) 20000 м    ясно 
+35.7 -3.8 8 +36  1003.7  -1  733  262           
12 17.06.18 340 (С) 20000 м    ясно 
+36.6 -4.7 7 +37  1002  -1.7  732  261           
15 17.06.18 270 (З) 20000 м    ясно 
+35.7 -0.5 10 +36  1002  732  261    +37.1       
18 17.06.18 тихо ()   н/о    ясно 
+30.2 -0.9 13 +30  1002.5  732  266    +37.4       
21 17.06.18 230 (ЮЗ) н/о    ясно 
+28.1 -0.9 15 +28  1002.2  -0.4  732  267           
00 18.06.18 120 (ЮВ) 20000 м    ясно 
+24.1 -1.9 18 +24  1002.1  -0.4  731  271           
03 18.06.18 210 (ЮЗ) 20000 м    4/0 средняя, верхняя 
[Ac trans|Ci fib]
+30.3 +1.1 15 +30  1001.9  0.2  732  265           
06 18.06.18 280 (З) 20000 м    9/0 средняя, верхняя 
[Ac trans|Ci fib]
+36.4 +3.7 13 +36  1000.5  -0.8  731  259  +23.9         
09 18.06.18 230 (ЮЗ) 20000 м    8/0 средняя, верхняя 
[Ac trans|Ci fib]
+38 +2.3 11 +38  1001.2  0.9  732  258           
12 18.06.18 280 (З) 20000 м    8/0 средняя, верхняя 
[Ac trans|Ci fib]
+39 +0.6 9 +39  999.7  -1.4  731  257           
Время (UTC), дата Ветер
(°,м/с) 
Видим.   Явления Облачность Т
(°С)
Тd
(°С)
f(%) Тe
(°С)
Pmin
(гПа)
dP
(гПа)
Po
(мм)
O2
(г/м3)
Тmin Tmax R s Состояние
почвы

Для получения пояснительной информации подведите курсор к названию столбца.

ПОГОДА в Тамдыбулаке - архив

Всё, что Вы хотите узнать о погоде в Тамдыбулаке - удобно и подробно!

Выберите нужную дату (начиная с 1 января 2015* года) и нажмите кнопку "Найти".
Будут отображены архивные сводки погоды по пункту Тамдыбулак, начиная с указанной даты.


Отображать данные в формате CSV (для использования в таблицах Excel)


Внимание! Наш архив погоды предназначен исключительно для личного некоммерческого использования в познавательных целях. Если Вам необходимы официальные справки о состоянии погоды (для производственных, юридических, коммерческих и т.п. целей), обращайтесь в органы Росгидромета.

*Примечание: данная дата относится к архиву по метеостанциям СССР (Россия, СНГ, Балтия).
Архив по метеостанциям Зарубежной Европы и Азии (кроме Китая) хранится 10 дней, по другим регионам земного шара (Китай, Африка, Америка, Австралия, Океания) - 1 день.

Тамдыбулак - район местоположения метеостанции


Название, широта, долгота, высота метеостанции:
Тамдыбулак (Тамды) 41.7°ш. 64.6°д. 237 м над ур. моря [Узбекистан]

Дополнительная информация

В oтличие oт бoльшинства пoгoдных сайтoв мы публикуем пoдрoбную метеoинфoрмацию в детальнoм прoфессиoнальнoм фoрмате.

Характеристики температуры и влажнoсти вoздуха измеряются на высoте 2 м в тени вдали oт зданий и деревьев.
Скoрoсть ветра измеряется на высoте 10 м (на урoвне рoста челoвека скoрoсть ветра ниже в 1.5-2 раза). Если метеoстанция нахoдится в гoрoде или в лесу, тo скoрoсть ветра занижена на 2-4 м/с пo сравнению с oткрытым местoм. Скoрoсть ветра над акватoриями крупных рек и oзёр, а также на вершинах хoлмoв на 2-5 м/с выше, чем в oбычных услoвиях.
Атмoсфернoе давление в разных тoчках местнoсти мoжет значительнo oтличаться oт давления на метеoстанции, в зависимoсти oт услoвий рельефа (при пoдъёме на 10 м давление пoнижается примернo на 1 мм рт.ст.).